Voltar ao catálogo

USA 162

AtivoMilitarGEO
NORAD 26948·PAYLOAD·🇺🇸 United States

Lançado Oct 11, 2001 de Cape Canaveral Space Force Station

Loading…

TLE

AtualizadoSource: Mike McCants

Época: Sep 14, 2026, 10:35 UTC

1 26948U 01046A   26257.44158329  .00000000  00000-0  00000-0 0    01
2 26948  14.1350  25.8702 0009798 215.6785 144.2660  1.00270000  8670

Acompanhe USA 162 em tempo real com AllMySat

Download on the App Store